Theta_e
275 276 276 276 276 276 276 277 277 277 277 278 278 279 279 281 280 280 280 280 279 278 278 278 279 279 280 283 285 286 287 288 289 290 291 291 291 292 292 292 293 294 294 294 295 296 296 296 297 298 298 299 299 300 301 302 303 304 305 305 306 307 308 309 309 310 310 311 311 312 313 314 315 316 317 319 321 322 322 323 323 324 325 327 329 331
275 276 276 276 276 276 276 276 277 277 277 277 278 279 279 278 278 278 279 279 279 278 278 278 279 279 278 281 284 286 287 288 289 289 290 291 291 291 292 292 293 294 294 295 295 295 296 296 297 297 298 298 299 300 300 301 302 303 304 304 305 306 306 307 308 309 309 310 311 311 312 313 314 315 316 318 319 320 321 321 321 322 322 324 327 329
275 275 276 276 276 276 276 276 277 278 278 278 279 279 278 277 277 278 278 278 278 279 278 278 279 279 278 280 283 286 287 288 288 289 290 290 291 291 292 292 293 293 294 294 295 295 295 296 296 297 297 298 298 299 300 301 301 302 302 303 304 304 305 306 306 307 308 309 310 311 311 312 313 313 315 316 317 319 319 319 319 320 320 322 324 327
274 275 275 276 276 276 276 277 278 278 279 279 279 278 277 277 277 277 278 278 278 278 278 278 278 278 279 280 282 285 286 287 288 288 289 290 290 291 291 292 292 293 293 294 294 295 295 295 296 296 297 297 298 298 299 300 300 301 302 302 303 303 304 305 306 306 307 308 309 309 310 311 311 312 313 314 316 317 317 318 318 318 320 321 323 326
274 275 275 276 276 277 277 278 278 279 280 280 279 277 276 277 277 277 278 278 277 277 278 278 278 278 279 279 281 284 286 287 287 288 289 289 290 290 291 291 291 292 293 293 294 294 295 295 296 296 297 297 298 298 299 300 300 301 301 302 302 303 304 305 305 306 306 307 308 309 309 310 310 311 312 313 314 316 317 317 318 318 318 320 322 325
275 276 276 276 277 277 278 278 279 280 280 279 278 277 277 277 277 277 277 277 277 278 278 278 278 278 279 279 281 284 285 286 287 287 288 289 289 289 290 290 291 292 292 293 294 294 295 296 296 297 297 298 298 299 299 300 300 301 301 302 303 304 304 305 305 306 306 307 308 308 309 309 309 310 310 312 313 314 316 316 317 317 318 319 320 323
275 276 277 277 277 278 278 279 279 279 279 278 277 277 277 277 277 277 277 277 277 278 278 278 278 278 278 279 281 283 284 285 286 286 287 287 288 288 289 289 290 291 292 293 294 295 295 296 296 297 297 298 298 299 299 300 301 301 302 302 303 304 304 304 305 305 306 306 307 308 308 308 309 309 310 311 312 313 315 315 316 316 316 318 319 321
275 276 277 277 277 278 278 279 279 279 279 277 277 276 276 276 277 277 276 276 276 277 277 278 278 278 278 278 279 281 281 282 283 283 284 285 286 287 288 289 290 291 292 293 294 294 295 295 295 295 296 296 297 298 298 299 300 300 301 302 302 303 303 304 304 305 306 306 307 307 308 308 308 309 309 310 311 313 314 315 315 315 316 317 318 319
275 275 276 277 277 277 277 278 278 278 277 277 276 275 275 275 275 276 276 276 276 276 277 277 277 277 277 277 278 279 280 281 281 281 282 283 283 285 287 288 289 291 292 292 293 293 293 293 293 294 294 295 296 297 297 298 299 300 300 301 301 302 303 303 304 305 305 306 307 307 308 308 308 309 309 310 311 313 314 314 314 315 315 316 317 318
275 275 276 277 277 277 277 277 277 276 276 276 276 276 275 274 274 275 275 275 275 276 277 276 276 276 277 277 277 278 280 281 282 283 284 284 284 285 286 288 289 290 291 291 291 291 291 291 292 293 293 294 295 296 297 297 298 299 299 300 301 301 302 303 304 304 305 306 306 307 308 308 308 308 309 310 311 312 314 314 314 314 314 315 315 316
276 276 276 277 277 278 277 277 277 276 275 275 276 276 276 275 275 274 274 274 275 276 277 277 276 276 276 276 277 278 279 279 280 282 283 285 286 286 287 287 288 288 289 289 289 289 289 290 291 292 293 293 294 295 296 297 297 298 299 299 300 301 301 302 303 304 305 306 306 307 307 308 308 309 309 310 311 312 313 313 314 313 314 314 314 315
276 276 277 277 277 276 276 276 276 276 275 275 275 275 275 275 276 275 274 274 275 276 276 276 276 276 276 276 277 277 278 278 278 279 281 282 284 285 285 285 285 286 286 286 287 288 288 289 290 291 291 292 293 294 295 295 296 297 298 299 299 300 301 302 303 304 305 305 306 307 307 308 308 309 309 310 311 312 313 313 313 313 313 313 314 315
276 276 276 276 276 276 275 275 275 275 275 275 274 274 274 275 276 276 275 275 276 276 276 276 276 276 276 277 277 277 277 278 278 279 280 281 281 281 282 282 282 282 282 283 283 284 286 288 289 290 290 291 292 293 294 295 296 297 297 298 299 300 301 302 302 303 304 305 306 307 307 308 308 309 309 310 311 312 313 313 313 313 313 313 314 314
276 276 276 275 275 275 275 275 275 274 274 275 275 275 275 276 276 276 276 276 276 276 276 275 275 275 276 277 277 277 277 278 278 279 279 280 280 280 280 280 280 281 281 281 281 282 285 286 286 287 289 290 291 292 293 294 295 296 296 298 299 299 300 301 302 303 304 305 306 306 307 308 308 309 309 310 311 312 313 313 313 313 313 313 314 314
275 275 275 274 274 275 275 275 275 275 275 275 276 276 276 276 276 276 275 275 275 275 276 275 275 275 276 277 277 277 278 278 278 278 278 279 279 279 279 279 280 280 281 280 281 282 284 285 285 285 286 287 288 289 290 292 294 295 296 297 298 299 300 301 302 303 304 305 305 306 307 308 309 309 309 310 311 312 312 313 313 313 313 313 314 314
275 275 274 274 274 275 276 276 276 275 276 276 276 276 276 275 276 276 275 275 275 275 274 274 274 274 275 276 277 277 278 278 278 278 277 278 278 279 278 279 279 279 280 280 280 281 283 283 284 284 285 287 288 290 291 292 293 295 296 296 298 299 299 300 301 303 303 304 305 306 307 308 308 309 309 310 311 312 312 312 312 312 313 313 313 314
276 276 275 275 275 275 276 276 276 276 276 276 276 276 276 275 275 275 275 275 274 274 274 273 273 272 273 274 276 277 278 278 278 277 277 277 278 279 279 279 279 279 279 280 280 281 282 283 283 284 285 287 289 290 291 292 294 295 296 297 298 299 300 300 301 302 303 304 305 306 307 308 308 309 309 310 310 311 311 312 312 312 312 313 313 313
276 276 276 275 275 275 276 276 276 276 276 276 276 276 276 276 276 275 275 275 274 274 274 273 273 273 272 273 274 276 278 278 278 277 277 277 278 279 279 279 279 279 279 280 280 281 282 282 283 284 285 288 290 291 292 293 294 295 296 297 298 298 299 300 301 302 303 304 305 306 306 307 308 308 309 309 310 311 311 311 312 312 312 312 313 313
276 276 275 275 275 275 275 275 275 275 275 275 275 275 275 275 276 276 275 275 275 274 274 274 274 274 273 274 275 277 278 279 278 277 277 277 277 278 279 279 279 279 279 280 281 282 282 283 285 287 288 289 291 292 293 293 294 295 296 297 297 298 299 299 300 301 302 303 304 305 306 307 307 308 308 309 310 311 311 311 311 312 312 312 313 313
276 276 276 275 275 275 275 275 275 276 276 276 276 276 275 275 275 275 275 275 275 275 275 274 274 274 274 275 276 278 280 279 278 277 276 276 277 278 278 279 279 279 279 280 281 282 283 284 285 287 289 290 291 291 292 293 294 294 295 296 296 297 298 299 300 300 301 303 303 304 305 306 307 307 308 309 310 311 311 311 311 312 312 312 313 313
276 276 276 276 275 275 275 275 276 277 278 278 277 276 276 276 275 275 275 275 275 275 275 275 275 275 276 276 277 278 280 279 278 277 276 276 277 278 279 279 279 279 279 280 281 282 283 284 284 285 287 289 290 290 291 292 293 294 294 295 296 297 297 298 299 300 301 302 303 304 305 306 306 307 308 309 310 310 311 311 311 312 312 312 313 313
276 275 275 275 275 276 276 277 278 279 280 279 278 277 276 276 275 275 275 275 275 275 275 275 276 276 277 277 278 279 280 279 278 277 277 276 276 277 279 280 280 279 279 280 281 282 282 283 283 284 286 288 289 290 291 292 293 293 294 295 296 296 297 298 298 299 300 301 302 303 304 305 306 307 307 308 309 310 311 311 311 312 312 312 313 313
276 276 276 277 277 278 278 278 278 279 279 278 277 277 276 276 276 275 275 276 276 276 276 276 277 278 278 278 278 279 280 280 280 279 277 276 275 276 278 279 279 279 279 279 280 281 282 282 283 284 286 288 289 290 291 292 292 293 294 294 295 296 296 297 298 299 299 300 301 303 303 304 305 306 307 308 308 309 310 311 311 312 312 312 313 313
278 278 279 279 279 278 278 277 277 277 277 277 277 277 277 277 277 277 277 277 277 277 277 277 277 277 277 278 278 279 280 281 281 279 278 276 276 276 277 278 278 278 278 279 280 281 281 282 283 284 285 287 289 290 291 291 292 293 293 294 295 295 296 297 297 298 299 300 301 302 303 304 305 306 306 307 308 309 310 311 311 312 312 312 313 313
279 278 278 278 279 280 280 279 280 280 280 280 280 279 279 279 280 279 279 278 278 277 277 276 276 276 276 277 278 278 279 280 280 279 278 276 276 276 277 278 278 278 278 279 280 281 281 282 283 284 284 286 288 289 290 291 292 292 293 294 294 295 296 297 297 298 298 299 300 301 302 303 304 305 306 307 308 309 310 311 311 312 312 312 312 312
281 281 281 282 283 284 284 284 285 284 284 282 281 280 280 280 280 279 279 278 278 277 277 276 275 275 276 276 276 277 278 279 280 279 278 276 276 276 277 278 278 278 278 279 280 281 282 282 282 283 283 284 286 288 290 290 291 292 293 294 294 295 296 297 297 298 298 299 300 301 302 303 303 305 306 306 307 308 309 310 311 312 312 312 312 312
283 283 284 284 284 284 283 283 283 284 284 283 282 281 280 279 278 277 276 276 276 276 275 274 274 274 275 275 275 276 277 279 279 278 278 277 275 275 275 277 278 278 278 279 280 282 282 282 282 282 283 283 285 287 289 290 291 292 293 294 295 296 296 297 297 298 298 299 300 301 301 302 303 304 305 306 307 308 309 310 311 311 311 311 311 311
282 282 282 282 282 282 282 282 283 283 283 283 283 283 281 279 276 275 274 275 276 275 275 274 273 273 273 274 274 275 277 277 277 277 277 276 275 274 275 277 278 278 278 279 280 281 282 281 281 282 282 283 284 286 288 290 292 293 293 294 295 296 297 298 298 299 299 299 300 301 301 302 303 304 305 306 307 308 309 310 310 311 311 310 310 311
280 281 281 281 281 281 281 281 281 281 282 282 282 282 281 278 277 275 275 276 275 275 274 273 273 273 273 273 274 274 275 276 276 277 277 276 275 275 276 278 279 279 279 279 279 279 279 280 280 281 282 283 285 286 288 290 291 291 291 292 293 294 296 297 299 300 300 300 300 301 301 302 303 304 305 306 307 308 309 309 310 310 310 310 310 310
277 278 278 279 279 279 279 278 278 279 281 281 281 281 281 279 277 276 275 275 275 273 273 273 273 273 273 273 273 273 273 274 276 277 278 276 276 276 278 278 279 279 278 277 276 276 277 278 279 281 282 284 285 286 286 286 287 287 287 289 291 292 295 297 299 300 301 301 301 301 302 302 303 304 305 306 307 308 309 309 310 310 310 310 310 310
275 276 276 276 276 277 277 276 277 277 279 280 280 280 279 277 276 275 275 275 274 273 273 273 273 273 273 272 271 271 272 273 275 278 279 277 276 276 277 277 277 277 278 277 276 275 275 277 278 280 282 282 283 284 284 284 285 286 286 288 289 291 294 296 299 301 302 302 302 302 302 303 303 304 305 306 307 308 309 309 309 310 310 310 310 310
275 275 275 275 275 275 276 276 276 276 276 277 277 277 278 277 277 276 276 275 275 274 273 273 273 273 273 272 272 271 272 273 275 278 278 276 276 276 276 276 276 277 278 278 277 275 275 276 277 279 280 281 281 282 284 285 285 285 286 287 288 290 293 295 298 301 303 303 303 303 303 303 304 304 305 306 307 308 309 309 310 310 310 310 310 310
275 275 275 275 275 275 275 275 275 275 275 275 276 276 277 277 277 278 277 276 276 275 274 274 273 273 273 273 273 273 273 274 276 278 279 277 276 275 276 276 276 276 277 278 278 277 276 276 277 278 279 280 281 282 283 284 285 286 286 287 287 289 292 294 298 301 304 304 304 303 303 303 304 305 306 306 307 308 309 309 310 310 310 310 310 310
275 275 275 275 275 275 275 275 275 275 275 275 276 276 276 277 277 277 278 277 277 277 276 275 274 273 273 273 273 273 274 275 277 279 280 277 276 276 276 276 276 276 276 277 277 278 278 278 278 278 279 280 281 282 282 283 285 286 286 287 287 289 291 294 297 301 305 305 304 304 303 303 304 305 306 306 308 308 309 309 310 310 310 311 310 310
274 274 274 274 274 274 274 275 275 275 275 276 276 277 277 277 277 277 277 277 277 277 277 276 276 275 274 273 273 273 273 275 277 280 280 278 277 276 276 276 276 277 276 276 277 277 277 277 278 278 278 279 280 281 282 283 284 286 286 287 288 290 291 293 296 301 305 306 305 304 304 304 304 304 306 307 307 308 309 309 310 310 310 310 311 311
273 273 274 274 274 274 274 274 275 275 275 275 276 276 276 277 277 277 277 277 277 278 278 278 277 277 276 275 274 274 274 275 277 279 280 279 278 277 276 276 277 277 277 276 276 276 276 277 278 278 278 278 278 280 281 283 284 285 286 287 288 290 291 294 297 301 305 306 306 305 305 305 305 305 306 307 308 308 309 309 310 310 310 310 311 311
273 273 273 273 274 274 274 274 274 274 275 275 275 276 276 276 277 277 277 277 277 277 278 278 278 278 279 278 277 276 276 277 278 279 279 279 278 277 276 277 277 278 277 276 276 276 276 276 277 277 278 278 278 279 280 282 283 283 284 285 287 288 290 293 296 300 304 305 306 307 306 306 306 306 307 307 308 308 309 309 309 309 310 310 310 310
272 273 273 273 274 274 274 274 274 274 275 275 275 276 276 276 277 277 277 277 277 277 277 277 278 278 279 279 279 278 278 278 278 278 279 279 278 278 277 277 277 278 278 277 277 277 276 276 276 276 276 277 278 279 280 281 282 282 283 284 286 287 288 290 292 296 302 304 306 307 307 307 307 307 307 308 309 309 309 309 310 310 310 310 310 310
272 272 273 273 274 274 274 274 274 274 275 275 276 276 277 277 277 277 277 277 277 277 277 277 277 277 278 278 279 280 280 279 279 279 279 279 278 278 277 277 277 277 278 278 278 277 277 276 276 276 276 277 278 279 280 281 281 281 282 283 285 286 287 290 293 297 301 304 306 307 307 308 308 308 308 309 309 309 309 309 310 310 310 310 310 310
272 272 273 274 274 274 274 274 275 275 275 276 277 277 277 277 277 277 277 278 278 278 278 278 278 278 278 279 279 280 280 280 280 280 280 279 279 279 278 277 277 277 278 278 278 278 277 277 276 277 277 277 277 278 279 280 280 281 283 283 283 284 287 289 292 295 299 303 305 307 307 308 308 308 309 309 309 309 309 310 310 310 310 310 310 309
272 272 273 273 274 274 275 275 275 276 276 276 276 276 276 276 276 276 277 277 278 278 278 278 278 278 278 279 279 279 280 280 280 280 280 280 280 279 279 279 278 278 278 278 278 278 278 277 277 277 278 278 278 279 279 280 281 282 283 282 283 284 286 287 288 290 293 298 303 306 307 308 308 308 309 309 309 310 310 310 310 311 311 311 311 310
273 273 273 273 274 274 274 275 276 276 276 276 275 275 275 275 276 276 276 276 276 277 277 277 277 277 277 278 279 279 280 280 280 281 281 280 280 280 280 279 279 279 279 278 278 278 279 278 278 278 278 278 278 279 279 280 282 283 283 283 284 285 286 287 288 290 292 296 301 306 307 308 308 309 309 309 310 311 311 311 311 311 311 311 312 312
273 273 273 273 274 274 275 275 276 275 275 275 275 275 275 276 276 276 276 275 276 276 277 277 277 277 276 276 277 278 279 280 280 281 281 281 281 281 280 280 280 280 280 279 278 278 279 279 279 279 279 279 279 279 279 280 281 282 283 284 284 284 283 285 289 292 294 297 301 305 307 308 309 309 309 310 310 311 311 311 311 311 312 312 313 313
273 273 273 274 274 274 275 274 274 274 274 274 274 274 275 276 276 276 276 275 276 276 276 276 277 276 276 275 276 277 278 279 280 281 282 282 282 282 281 281 281 281 280 280 279 278 279 279 279 280 281 281 280 280 280 280 281 281 282 284 284 284 283 285 287 291 294 297 301 305 307 308 309 309 310 310 310 311 312 312 313 313 313 314 314 315
273 273 273 274 274 274 273 273 273 274 274 274 274 274 275 276 276 276 276 275 275 276 276 276 276 275 275 275 275 276 277 278 280 281 281 283 284 285 284 283 282 282 281 281 280 280 279 279 279 280 281 281 281 281 280 281 281 282 283 284 285 285 285 286 287 288 290 293 297 302 307 308 309 309 309 310 310 311 312 312 313 314 314 315 316 316
273 272 273 273 273 273 273 273 273 273 273 273 274 274 275 275 275 276 276 276 275 275 276 276 275 275 274 275 275 276 276 277 278 279 280 281 282 283 284 284 284 283 283 282 282 282 281 281 280 281 281 281 281 281 281 281 282 282 283 284 285 286 286 287 287 288 289 291 294 299 305 307 308 308 309 309 310 311 312 313 313 314 315 316 317 317
272 272 272 272 272 272 273 273 273 273 273 273 273 274 275 275 275 275 275 275 275 275 275 276 275 275 274 275 275 275 276 276 277 278 279 280 281 282 282 283 284 284 284 284 283 283 283 283 282 282 281 281 280 281 281 282 282 282 283 284 285 285 286 286 287 288 289 291 293 297 303 306 307 307 309 309 310 311 312 314 314 315 315 316 317 318
272 272 272 272 272 272 272 272 272 272 272 272 273 274 274 275 275 275 275 275 275 275 275 275 275 274 274 275 275 276 276 276 277 278 279 279 280 281 282 282 283 283 284 284 284 284 284 284 284 283 282 281 281 280 281 282 283 283 284 285 285 285 286 286 287 289 290 292 293 296 301 304 306 307 308 309 310 311 312 314 314 315 316 317 317 318
272 272 272 272 271 271 271 272 272 272 272 272 273 273 274 275 275 276 275 274 274 274 274 274 274 274 274 275 275 276 277 277 277 278 278 279 279 280 280 281 282 282 283 283 284 284 284 284 285 285 284 283 282 281 281 282 283 284 285 286 286 286 286 287 288 290 291 292 294 297 300 304 306 307 309 309 309 310 311 313 314 315 316 317 318 319
272 272 272 271 271 271 271 272 272 272 272 272 273 273 273 274 274 274 274 274 274 274 274 274 274 274 274 275 275 276 277 277 277 277 278 278 279 279 280 280 281 281 281 281 282 282 283 284 284 285 287 286 284 283 282 282 283 285 285 286 287 287 287 288 289 290 292 293 295 297 300 304 306 308 309 309 309 310 311 312 314 315 317 318 319 320
272 272 272 271 271 271 271 271 272 272 272 272 273 273 273 273 273 273 274 274 274 274 274 274 274 274 274 275 276 276 277 277 277 277 277 278 279 279 279 280 280 280 279 280 280 281 282 283 283 284 286 288 288 286 284 283 284 284 285 286 287 288 288 289 290 291 293 294 296 298 300 303 306 307 309 309 309 309 310 311 313 314 317 318 319 320
Wind_Speed
10 10 10 12 12 11 11 12 12 12 12 11 9 8 8 8 8 8 10 10 10 9 9 10 10 12 14 18 21 23 24 24 23 23 23 22 22 22 21 21 20 20 19 19 20 20 20 21 21 21 22 22 22 21 21 20 20 20 20 21 21 21 20 19 18 17 16 16 16 16 16 17 18 19 20 19 17 15 12 12 12 12 12 11 11 12
10 10 10 12 12 12 11 12 12 11 11 11 10 9 8 7 7 7 8 9 9 8 8 9 10 11 12 15 19 22 23 23 23 23 23 23 22 22 21 21 21 20 20 20 20 20 20 20 21 21 21 22 22 22 21 21 20 20 20 21 21 21 21 19 18 18 17 17 16 16 16 17 18 19 20 19 18 15 12 11 11 12 13 12 11 11
10 10 10 11 11 11 11 11 11 11 12 11 9 8 7 7 7 7 7 8 8 7 7 8 9 10 11 13 17 20 22 23 23 24 23 23 23 22 22 21 21 20 20 20 20 20 20 20 20 21 21 21 22 22 22 21 21 21 20 21 21 21 21 20 19 18 17 17 16 16 16 17 17 19 20 20 18 16 13 11 11 12 13 13 13 12
10 10 10 9 10 10 11 11 11 10 10 9 9 7 7 6 7 7 7 7 7 7 7 8 8 9 9 10 13 17 21 23 23 24 23 23 23 22 22 21 21 21 20 20 20 20 20 20 20 21 21 21 22 22 22 22 22 21 21 21 21 21 21 20 19 18 18 17 16 16 16 16 17 18 19 20 18 16 14 12 11 12 13 13 13 13
10 10 10 9 9 10 10 10 10 10 9 8 7 6 6 6 6 7 7 7 7 7 7 7 8 8 8 8 11 16 20 22 23 23 23 23 23 22 22 21 21 20 20 20 19 19 19 20 20 20 21 21 22 22 22 22 22 22 22 22 22 21 21 20 19 19 18 17 16 16 15 16 17 18 19 19 19 17 14 13 12 12 13 14 14 13
10 10 9 9 8 8 8 9 9 9 8 6 6 5 6 5 6 6 6 7 7 7 7 7 7 7 7 8 12 16 20 21 22 23 23 23 22 22 22 21 21 20 19 19 19 19 19 19 19 19 20 20 20 21 21 22 22 22 21 21 21 21 20 20 19 19 18 17 16 16 15 15 16 18 19 19 19 17 15 13 13 13 13 13 13 13
10 9 9 9 8 8 8 8 8 7 6 6 5 6 6 6 6 6 6 6 7 7 7 6 6 6 6 8 11 15 17 19 20 21 21 21 21 21 21 21 20 19 19 19 19 18 18 18 18 18 19 19 19 20 20 20 20 20 20 20 20 20 20 20 19 19 18 18 17 16 15 15 16 17 19 19 19 17 15 14 13 13 13 13 13 13
11 10 9 9 9 8 7 7 7 6 5 5 5 6 6 6 6 6 6 6 6 6 6 6 6 6 5 6 8 11 11 13 13 14 16 17 18 18 19 19 19 19 19 18 18 18 18 18 18 19 19 19 19 19 19 20 20 20 19 19 19 20 20 20 19 19 19 18 17 16 15 15 16 17 19 19 19 17 15 14 13 13 13 12 12 12
12 11 10 10 9 8 8 7 6 5 4 5 5 6 7 7 6 6 6 6 5 5 4 5 5 6 6 5 6 7 9 10 10 10 11 12 12 13 16 17 18 18 18 18 18 18 19 19 19 20 20 20 20 20 20 20 20 20 20 20 20 20 20 20 20 20 19 19 18 17 16 16 16 17 19 19 18 17 15 14 14 13 13 12 12 12
12 12 10 9 8 7 7 6 5 5 4 4 5 5 5 6 7 7 7 6 5 4 4 5 6 6 7 6 5 6 8 10 12 14 15 14 15 15 16 15 15 15 16 17 18 19 20 20 20 20 20 20 20 20 20 20 20 20 20 20 20 20 21 21 21 21 20 19 18 17 17 16 17 17 18 19 18 17 15 14 13 12 12 11 11 11
11 10 8 7 6 5 5 5 5 5 4 4 4 5 5 5 6 7 8 8 7 5 5 5 5 6 7 6 6 6 7 8 10 12 14 15 17 17 16 15 14 14 16 17 18 19 20 20 20 20 20 20 20 20 20 20 21 21 21 21 21 21 21 21 21 21 21 20 19 18 17 17 17 17 18 18 18 16 14 13 12 11 11 10 10 10
8 6 5 5 4 4 5 5 5 5 4 4 5 5 5 5 5 6 8 8 8 7 6 5 5 5 6 6 6 6 6 6 7 7 8 10 11 11 10 10 11 12 13 15 16 17 18 19 19 19 19 19 19 19 19 19 20 20 21 21 21 21 21 21 21 21 21 20 20 19 18 17 17 18 18 18 17 16 14 13 12 11 10 9 9 9
5 4 4 5 5 5 5 5 5 4 4 5 6 6 6 5 5 5 6 7 8 7 6 6 6 5 5 5 5 5 5 6 7 7 7 6 5 5 4 5 6 7 8 9 9 11 14 16 17 17 18 18 18 18 19 19 19 19 20 20 20 21 21 21 21 21 21 21 20 19 18 18 18 18 18 18 17 15 14 12 11 11 10 10 9 9
4 4 5 6 7 6 6 6 6 6 6 5 5 6 6 6 6 6 6 7 7 7 7 8 7 6 5 5 5 4 5 6 6 6 6 5 4 3 3 4 5 6 6 6 6 8 11 12 12 13 15 16 17 17 17 17 18 19 19 20 20 20 21 21 21 21 21 21 20 19 19 18 18 18 18 17 16 15 14 12 12 11 10 10 9 9
6 6 8 8 8 7 6 6 6 6 5 5 5 5 6 6 6 7 7 7 7 7 7 8 8 7 5 4 4 4 5 5 6 5 5 4 4 3 3 4 5 6 5 6 7 8 9 9 8 8 10 13 14 15 16 16 17 18 18 19 19 20 20 20 21 21 21 20 20 19 19 18 18 18 17 17 16 15 14 13 12 11 11 10 10 9
7 8 8 9 8 7 5 5 5 5 5 5 5 5 6 6 7 6 7 7 7 6 7 7 8 7 5 4 3 3 4 5 5 5 5 5 4 3 4 4 5 6 6 6 7 7 6 6 7 7 8 12 15 17 18 18 18 18 18 19 19 19 19 20 20 20 20 20 20 19 19 18 18 17 17 16 16 15 14 13 12 11 11 11 10 9
7 7 7 7 7 6 5 5 5 5 5 5 5 5 6 6 6 6 7 7 6 6 5 6 7 6 5 3 3 3 3 4 4 5 7 6 5 4 3 4 5 7 7 7 7 7 6 6 6 7 8 12 15 18 18 18 18 18 18 18 18 19 19 19 19 19 19 19 19 19 19 18 17 16 16 16 15 15 14 13 13 12 11 11 10 9
5 5 5 6 6 7 7 6 6 6 6 6 6 6 6 6 6 7 7 7 6 6 6 6 6 5 5 4 3 2 2 4 5 6 7 7 6 4 3 4 5 7 7 7 7 7 6 6 6 7 9 14 17 18 18 18 18 18 18 18 18 18 18 19 19 19 19 19 19 19 18 17 17 16 16 15 15 15 14 14 13 12 11 11 10 9
6 5 6 7 7 7 7 7 6 6 6 6 7 7 7 7 7 7 7 7 7 7 7 7 6 6 6 5 4 3 3 4 5 7 7 8 7 5 3 4 6 7 8 7 7 6 6 6 8 11 14 16 18 18 18 18 18 18 18 18 18 18 18 19 19 19 19 19 19 19 18 17 17 16 15 15 15 15 14 14 13 13 12 11 10 9
7 6 6 6 7 7 7 6 6 6 7 7 7 7 7 7 8 7 7 7 7 7 7 7 7 7 6 7 6 5 4 4 5 6 7 8 8 6 4 4 6 8 8 7 6 6 6 6 7 10 14 16 17 18 19 19 19 19 19 19 19 19 19 19 19 19 19 19 19 19 18 17 17 16 16 15 15 15 15 14 13 13 12 11 10 9
8 7 6 5 5 6 8 8 8 8 9 8 7 7 7 7 7 7 7 7 7 7 7 7 8 7 6 7 6 5 3 4 5 6 6 7 7 6 3 4 6 7 8 7 6 6 6 6 6 7 10 14 17 19 19 20 20 20 20 20 20 20 19 19 19 19 20 19 19 19 18 18 17 16 16 15 15 15 14 14 14 13 12 11 10 10
8 7 6 6 6 7 9 9 9 9 8 8 7 7 7 7 7 8 7 7 7 8 8 8 7 7 7 7 7 5 4 4 5 6 5 6 7 6 3 4 5 7 8 7 6 5 5 5 6 7 11 15 18 19 20 20 20 20 20 20 20 20 20 20 20 20 20 20 20 19 19 18 17 17 16 15 15 14 14 14 14 13 13 12 11 10
8 8 8 7 7 7 7 7 6 7 8 9 9 9 7 8 8 8 8 8 8 8 8 8 7 7 7 7 7 6 5 5 6 5 5 7 7 5 3 4 5 7 8 7 6 5 5 6 7 8 11 16 18 19 20 20 21 21 21 21 21 21 21 21 20 20 20 20 20 20 19 18 18 17 16 16 15 14 14 14 14 13 13 12 11 10
7 7 7 6 6 7 7 7 8 8 9 10 9 8 7 8 8 9 8 8 8 7 7 7 8 8 8 8 7 7 5 5 5 5 4 6 6 5 3 4 6 7 8 7 6 6 7 7 7 7 9 13 17 19 20 21 21 22 22 22 22 21 21 21 21 21 21 21 21 20 20 19 18 18 17 16 15 15 14 14 14 14 13 12 11 10
8 9 9 9 10 11 11 11 11 11 10 7 5 4 5 7 8 8 7 7 7 7 7 7 8 8 7 7 6 5 4 4 4 4 4 4 5 6 4 4 6 7 8 7 6 7 8 8 7 7 7 10 14 18 20 21 21 22 22 22 22 22 21 21 21 21 21 21 21 21 21 20 19 18 17 16 16 15 14 14 14 13 13 12 11 10
13 14 14 15 17 19 20 20 20 19 18 13 9 7 5 5 6 6 6 6 6 6 6 7 8 8 6 5 5 5 3 3 3 3 3 4 5 5 5 4 5 7 8 7 7 7 8 8 7 6 6 8 12 15 18 20 20 21 21 21 21 21 21 21 21 21 21 22 22 22 22 21 20 19 18 17 16 15 15 14 14 13 12 10 10 9
20 20 21 22 22 22 23 23 23 23 23 20 17 13 9 7 6 6 7 6 6 6 7 7 8 8 7 6 5 4 4 3 2 2 2 3 5 5 5 4 5 6 8 7 7 7 8 8 8 7 6 7 8 11 16 18 19 20 20 19 19 19 20 20 21 21 22 22 22 22 22 22 21 20 19 18 16 15 14 14 13 12 11 9 8 7
19 20 20 20 21 21 21 21 20 20 20 20 20 18 13 8 7 7 7 6 5 6 7 7 8 7 7 6 6 5 4 4 3 2 2 3 4 5 5 4 5 6 6 6 6 7 8 8 8 7 7 7 7 8 12 14 16 16 16 16 16 16 17 19 20 21 22 22 22 23 23 22 22 21 20 18 17 15 14 14 12 11 9 7 5 5
16 17 18 19 19 19 19 18 18 18 18 19 19 17 12 8 6 6 6 5 4 5 6 7 7 7 7 7 6 6 6 5 4 3 3 4 5 5 5 4 4 4 4 5 5 6 6 6 6 5 6 7 7 6 7 9 10 10 11 13 14 15 16 18 19 20 21 22 22 23 23 23 22 21 20 19 17 16 14 13 12 10 7 6 5 4
11 13 13 14 15 15 14 13 13 14 16 17 17 16 11 7 5 5 4 4 4 5 7 7 8 7 7 7 7 6 5 4 3 3 3 4 4 4 4 3 3 3 3 4 5 5 5 4 4 4 4 5 5 4 4 5 6 7 8 10 12 13 15 17 18 19 21 22 22 23 23 23 23 22 20 19 17 16 15 13 11 8 5 5 5 5
9 9 9 9 9 9 8 8 9 10 12 14 14 13 10 7 5 4 4 4 5 6 7 7 8 7 7 6 6 5 4 2 2 2 2 2 3 3 3 3 3 3 3 3 4 4 5 4 3 2 2 3 3 3 4 4 5 5 5 7 8 10 13 15 16 17 19 20 22 23 23 23 23 22 20 19 18 17 15 14 11 8 5 5 5 5
8 8 7 7 6 6 6 6 7 7 7 8 8 8 8 7 6 5 5 5 5 6 7 7 7 7 7 7 7 6 4 2 2 2 2 2 3 3 3 4 4 4 3 3 3 4 5 4 3 3 3 3 4 4 5 5 5 4 5 6 6 8 11 13 14 14 15 17 20 22 23 23 23 22 21 19 18 17 16 15 13 9 6 6 6 6
8 7 7 7 6 6 6 5 5 5 6 6 6 6 7 7 7 7 6 5 5 6 6 7 7 7 7 8 8 7 6 4 4 5 5 3 3 3 3 4 4 4 4 4 4 5 5 5 5 5 5 5 4 4 4 5 4 4 5 5 6 7 9 10 10 11 10 12 14 17 21 22 23 22 21 20 19 18 17 17 15 12 8 7 7 6
8 8 8 7 6 6 6 5 5 5 5 5 6 6 6 6 6 7 7 6 6 6 6 7 7 7 7 7 8 8 7 5 6 7 7 5 4 4 4 5 5 4 4 4 4 4 5 6 6 6 6 5 5 4 4 4 4 4 4 4 5 6 7 8 8 8 8 8 9 10 13 16 18 20 19 19 19 18 18 17 17 15 13 10 8 7
8 8 8 7 6 6 6 6 5 5 5 5 6 6 6 5 6 6 6 6 6 6 6 7 7 7 7 7 8 8 7 6 6 7 8 6 5 4 4 5 5 4 4 4 4 4 4 6 7 7 7 6 6 5 4 3 3 4 3 4 5 6 6 7 8 8 8 6 7 7 8 9 11 13 15 16 17 18 18 18 18 17 16 14 11 8
7 7 7 7 6 6 6 6 6 6 6 5 5 5 5 5 5 6 6 6 7 7 7 7 7 8 8 8 8 8 8 6 7 8 8 7 6 5 5 5 5 4 4 5 5 4 4 6 7 8 8 7 7 5 4 3 3 3 3 4 4 6 7 7 8 8 7 6 6 7 7 7 8 9 10 14 16 17 18 18 18 18 18 17 15 12
7 7 7 7 6 6 6 6 6 6 6 5 5 5 5 6 6 6 6 6 7 7 8 9 9 9 10 9 9 9 9 8 8 8 9 8 7 6 6 5 5 6 5 6 6 5 5 6 7 7 7 7 6 5 4 3 3 3 3 4 4 5 7 8 8 9 8 7 7 7 7 7 8 8 9 12 14 15 16 17 18 18 19 18 17 15
8 7 7 6 6 6 6 6 6 6 6 6 6 6 6 6 6 7 6 7 7 8 8 8 8 10 13 13 13 12 11 11 10 11 11 9 8 8 7 7 7 7 6 6 6 6 6 7 7 7 6 6 7 7 6 5 4 4 4 4 5 6 7 7 8 9 9 8 7 7 7 8 8 7 8 9 10 10 11 12 13 15 17 17 17 17
8 7 7 7 6 6 6 6 6 6 6 6 6 7 7 7 7 7 7 7 7 8 8 8 8 9 11 13 15 15 15 14 14 13 13 11 10 9 9 8 8 8 7 7 7 7 7 7 7 7 6 6 7 7 6 5 5 4 5 5 5 6 6 7 7 8 9 7 7 7 8 8 8 7 7 8 8 9 9 9 10 11 12 11 12 14
8 7 7 7 7 7 6 7 7 6 6 7 7 8 7 7 7 7 6 7 7 8 8 9 9 9 9 11 12 14 14 13 13 13 12 11 10 10 9 9 8 8 7 7 7 7 8 8 8 8 8 7 7 7 6 5 5 5 6 5 5 5 5 5 6 8 8 7 6 7 7 8 8 8 8 8 9 9 9 8 8 9 10 9 8 9
8 8 7 7 7 7 7 7 7 7 7 7 7 6 6 6 6 6 6 6 6 7 7 7 8 8 8 9 10 11 12 12 13 13 12 12 12 11 9 9 8 8 7 7 8 8 8 9 9 9 9 8 9 9 9 8 7 7 8 7 6 6 6 7 7 8 8 8 7 7 7 7 8 8 9 9 9 9 8 8 8 8 8 8 8 8
9 9 8 7 7 7 7 7 7 7 7 7 6 6 6 6 6 6 6 6 6 6 5 5 6 6 7 7 8 8 9 10 11 12 13 13 13 13 11 10 9 8 8 8 8 9 9 9 9 9 9 8 8 8 9 9 8 8 8 7 7 7 8 8 7 6 7 8 8 7 7 7 8 9 9 9 9 8 8 8 9 9 9 9 9 9
8 8 8 8 7 7 8 8 8 7 7 6 6 6 6 5 6 6 6 6 6 6 6 6 6 6 6 7 6 6 7 8 10 11 12 13 13 13 12 11 10 9 8 8 8 9 9 10 10 10 9 8 8 9 10 9 9 8 7 7 6 6 5 4 4 4 5 6 7 7 6 6 7 7 8 8 8 8 8 8 9 10 10 10 10 10
8 8 8 7 7 7 7 7 6 6 6 6 6 6 6 6 6 7 7 6 6 7 6 6 6 6 6 7 7 6 6 6 7 9 10 12 13 13 12 12 12 11 10 9 8 8 8 9 10 10 9 8 8 9 10 10 9 8 7 7 7 8 7 5 4 4 5 6 6 6 6 6 6 7 7 7 7 8 8 8 9 9 9 9 9 9
7 7 7 7 7 7 7 7 7 6 6 6 7 7 6 7 7 7 6 6 7 7 6 6 5 5 6 6 6 6 6 5 5 6 7 10 12 13 12 11 10 10 10 10 9 9 8 8 9 8 8 8 9 10 10 10 9 9 8 8 8 9 9 7 6 6 6 7 7 6 6 6 7 7 8 9 9 9 9 9 9 9 9 9 9 10
7 7 8 7 7 8 8 8 7 7 7 7 7 7 7 7 6 6 7 7 7 7 6 6 5 5 6 6 6 6 6 6 6 5 5 5 6 8 8 9 9 8 8 9 10 10 10 9 9 8 7 8 9 10 11 10 10 9 8 8 8 8 8 8 8 8 7 8 8 8 7 7 8 9 9 10 10 10 9 9 10 10 10 10 10 10
7 8 8 8 8 8 8 7 7 7 7 7 7 7 7 7 6 6 7 7 6 6 7 6 6 6 7 7 7 6 7 7 7 6 5 5 5 5 5 6 8 9 8 9 9 10 11 11 10 9 8 8 9 10 11 10 10 9 9 8 8 7 8 8 8 8 7 8 8 8 9 8 8 9 9 9 9 9 9 9 9 10 10 10 10 11
7 8 8 8 8 8 8 8 8 7 7 7 7 7 7 7 8 8 7 7 6 6 7 6 6 6 7 7 7 7 7 8 7 7 6 6 5 5 5 5 6 7 8 9 10 11 11 12 12 12 11 10 10 11 11 10 10 9 9 8 8 8 9 9 8 7 7 8 10 10 10 9 8 9 9 8 8 8 9 9 10 10 10 10 11 11
7 7 7 8 8 8 8 8 8 8 8 8 7 7 7 8 9 9 7 7 6 6 6 6 7 7 7 7 7 7 8 8 7 7 6 6 5 5 5 5 5 6 7 8 9 10 11 12 14 15 14 13 12 12 11 10 9 9 8 8 8 8 9 8 8 7 8 9 11 12 12 10 8 8 8 8 8 9 9 10 10 10 10 11 11 12
7 7 7 7 7 8 8 8 8 8 8 8 8 8 7 7 7 7 7 7 6 6 6 6 7 7 7 7 7 7 7 7 6 6 6 5 5 5 5 5 5 5 5 6 6 7 8 8 11 14 17 18 16 14 11 10 9 9 8 9 8 8 8 8 8 8 8 9 10 11 12 10 9 8 8 8 9 9 10 10 10 10 10 11 12 13
7 7 7 7 7 8 8 8 8 8 9 9 8 8 8 7 7 7 6 6 6 6 6 6 7 7 8 8 8 8 8 7 7 7 7 6 5 6 6 6 6 5 5 5 5 5 4 4 6 9 14 20 22 20 13 11 10 9 9 9 8 8 8 8 8 8 9 9 9 9 10 10 9 9 9 8 8 8 9 10 10 11 11 12 12 13
Wind_Direction
281 284 286 285 285 285 284 283 283 283 284 284 284 285 285 287 287 287 288 290 290 289 290 291 293 296 297 300 301 302 302 303 303 304 304 304 304 303 302 300 297 295 293 291 289 287 286 285 285 284 283 282 281 279 278 278 278 280 282 286 288 289 289 287 283 280 277 277 280 283 289 294 298 301 303 302 300 297 294 299 302 302 297 283 265 247
281 283 283 283 282 282 282 281 280 279 280 282 284 285 287 288 288 287 287 286 285 284 286 289 292 295 295 297 299 300 301 302 303 303 303 302 301 300 299 297 295 294 292 290 288 286 284 283 282 281 281 280 279 278 277 276 277 278 280 282 284 285 285 284 282 279 276 276 278 282 287 292 296 299 302 303 301 300 298 304 309 312 312 301 285 264
283 284 283 282 282 281 281 282 279 277 277 279 281 283 286 287 288 288 289 288 286 284 283 285 289 292 293 294 296 298 300 301 301 301 301 300 299 299 298 297 296 294 292 289 287 284 282 281 279 278 277 276 275 275 274 274 274 274 275 276 278 279 280 280 279 277 275 274 276 279 283 288 293 297 300 301 301 300 298 302 306 308 308 303 294 279
282 282 283 283 280 278 277 278 279 278 277 278 280 282 282 283 284 285 286 287 287 285 282 282 284 287 289 290 293 296 297 298 299 299 299 298 298 298 298 297 295 293 290 287 284 281 279 277 275 274 273 272 271 270 270 269 269 269 269 270 272 273 274 275 274 274 272 272 272 275 279 284 289 293 297 299 299 298 296 297 299 301 302 300 295 286
277 278 280 280 279 276 274 275 277 278 279 280 280 280 278 278 281 284 286 286 286 285 284 283 283 284 286 288 291 294 295 296 297 298 298 298 299 298 298 296 294 291 287 284 281 278 275 273 271 270 269 268 267 266 265 264 264 264 264 265 267 269 271 272 272 271 270 269 269 271 274 280 285 290 294 296 296 294 291 290 292 295 297 299 297 291
274 274 275 276 276 276 277 277 278 279 282 282 280 278 277 277 280 284 286 287 286 286 285 284 282 281 282 285 289 292 294 296 297 297 298 298 298 298 297 295 292 289 285 282 278 276 274 273 272 272 273 271 270 268 266 264 262 262 262 264 266 269 270 270 270 270 269 267 267 268 271 276 282 286 291 293 293 291 287 285 285 288 292 296 298 295
273 272 272 272 272 273 275 275 277 279 283 285 284 283 281 281 282 282 283 284 285 285 285 284 281 280 280 284 288 291 294 295 296 296 297 297 296 296 295 293 290 287 283 280 278 278 280 282 283 284 283 282 279 276 274 270 267 266 265 266 268 270 271 271 270 269 268 267 266 266 268 272 277 282 286 289 289 287 283 280 279 282 287 293 297 297
272 271 268 268 270 271 273 274 276 278 281 284 287 289 289 288 286 285 283 281 279 279 282 284 284 283 282 283 286 288 290 292 292 293 294 294 293 293 292 290 288 286 283 283 285 288 292 294 294 292 290 287 284 281 279 275 273 271 270 269 270 270 270 271 270 270 268 266 265 264 264 268 273 277 282 285 285 283 278 273 273 276 281 289 296 299
267 268 267 267 269 273 277 277 276 274 273 278 282 287 291 293 292 290 287 282 278 275 278 285 287 288 286 283 281 283 285 286 287 288 289 289 289 288 287 285 285 286 288 292 296 299 301 299 296 292 289 285 282 280 278 275 273 272 270 269 269 269 269 270 270 269 268 266 264 262 261 264 268 273 278 281 281 279 273 269 268 272 277 286 294 299
260 262 265 267 268 271 276 279 279 275 267 271 274 279 284 289 292 293 291 286 282 278 278 283 287 289 290 287 283 282 285 286 287 287 288 287 287 286 284 284 286 291 298 300 302 302 301 298 294 291 287 283 280 277 275 273 271 269 268 267 267 267 267 268 268 268 267 265 262 260 259 261 265 270 275 279 279 276 271 266 265 268 273 282 291 298
258 260 264 268 269 269 269 274 277 278 273 275 275 274 273 278 284 289 290 289 288 286 282 280 283 286 290 291 288 286 286 285 286 287 287 286 285 285 286 288 293 298 302 301 301 299 297 294 291 288 285 282 279 276 273 271 269 267 266 265 264 264 265 265 266 266 265 263 261 259 258 259 262 267 272 276 276 274 269 264 262 263 267 276 285 294
260 264 269 273 273 272 270 272 275 277 278 280 281 280 278 274 276 281 286 288 289 289 288 285 282 281 284 288 289 288 285 282 281 282 281 280 280 282 286 291 296 298 299 297 295 293 291 289 287 285 282 280 277 275 272 270 268 266 264 263 262 262 262 263 263 263 263 262 260 258 257 257 259 263 269 273 274 272 267 261 258 258 261 269 278 288
265 269 271 271 272 274 276 278 280 280 278 277 279 281 282 281 279 278 279 282 284 287 290 289 285 281 278 278 280 281 280 278 278 277 277 275 275 278 285 289 290 289 289 288 286 284 284 283 282 281 279 278 276 274 272 270 267 265 263 262 261 260 260 260 260 261 260 260 258 257 256 255 257 260 264 269 270 269 265 260 256 255 257 263 271 281
272 272 273 274 276 277 279 280 280 278 276 274 275 277 279 282 281 279 277 278 280 284 288 288 286 284 281 275 270 268 271 274 275 275 275 273 271 272 279 281 280 279 278 276 275 273 274 276 277 277 277 276 275 274 273 271 268 266 264 261 260 258 258 258 258 258 258 257 256 255 254 254 254 256 260 264 266 265 262 257 254 253 254 259 266 275
281 282 282 281 281 280 279 277 275 273 272 272 273 275 278 279 278 278 278 280 283 286 287 286 284 282 279 271 262 257 261 267 272 276 277 274 270 266 269 275 277 276 274 273 272 271 270 270 270 270 271 271 270 270 269 268 266 264 263 261 259 257 257 257 257 257 256 255 254 253 252 252 252 253 256 260 262 261 258 254 251 250 251 256 262 270
285 283 281 281 280 279 277 275 274 274 275 275 276 276 277 277 277 277 278 281 284 285 285 284 284 282 277 265 252 247 256 267 274 280 283 280 275 267 258 269 275 277 275 272 271 270 268 265 262 262 264 266 266 266 266 265 263 261 260 258 257 255 255 255 255 255 254 253 252 251 250 250 250 251 253 256 258 257 255 251 248 247 248 252 258 266
279 278 277 279 281 281 281 280 278 279 280 279 277 274 273 273 274 275 275 276 278 278 277 279 282 285 285 276 258 243 248 268 278 283 284 283 280 273 257 266 274 278 277 273 271 269 268 265 262 261 262 265 265 265 264 262 261 259 258 256 255 255 254 255 255 255 255 253 252 250 249 249 249 250 252 254 254 253 251 247 245 243 244 248 253 261
273 275 280 283 284 284 284 282 281 279 279 277 275 272 268 267 267 267 268 269 269 270 270 271 273 277 283 284 275 256 249 270 280 283 284 282 281 278 267 267 271 274 275 271 268 266 264 263 261 261 263 264 265 265 264 262 261 260 259 258 257 257 256 257 257 257 256 255 253 251 250 249 249 250 251 253 252 251 247 244 242 240 240 242 248 255
278 278 279 280 280 280 280 279 278 277 275 272 271 270 267 264 262 261 261 261 262 263 265 267 268 269 273 275 275 271 262 269 276 280 283 283 283 282 276 272 272 273 273 270 268 265 263 261 261 262 264 266 267 267 267 266 265 265 264 263 262 261 260 259 259 258 258 256 255 253 251 250 249 250 251 252 251 249 245 242 239 237 237 239 243 249
278 273 271 274 276 277 276 273 270 268 267 266 265 265 263 262 260 260 260 259 259 260 262 265 267 267 269 272 272 271 266 269 275 279 281 282 282 282 278 273 273 274 273 271 268 267 265 263 264 266 269 270 271 271 271 270 269 269 268 266 265 264 262 261 260 259 258 257 255 253 251 249 249 249 250 251 250 248 245 241 238 236 235 236 239 244
277 273 267 268 270 271 271 268 266 265 266 266 264 261 259 259 259 259 259 260 261 261 261 261 262 263 266 269 270 271 271 277 279 281 281 280 279 278 275 270 270 272 274 273 271 269 268 268 268 269 270 272 272 272 272 271 270 269 268 267 265 264 262 261 259 258 258 257 255 253 251 249 248 247 248 249 249 247 244 241 237 235 234 235 237 240
276 273 268 261 257 259 265 270 272 273 273 270 264 260 258 259 261 263 263 262 262 262 262 262 263 265 268 271 274 275 274 269 270 272 277 277 276 275 274 274 275 277 278 278 277 275 271 270 269 268 269 270 270 270 270 270 269 268 267 266 265 264 262 260 259 258 257 256 255 253 251 249 247 246 246 247 247 246 244 241 237 235 233 234 235 238
262 262 262 259 257 259 268 274 277 275 271 264 259 257 257 259 261 264 265 263 263 264 265 266 268 269 269 270 271 269 260 250 249 255 266 273 276 279 280 284 284 281 278 278 280 281 278 274 272 270 270 270 270 270 270 270 269 268 267 266 265 263 262 260 259 257 256 256 254 253 251 249 246 245 244 244 245 244 243 240 237 235 234 234 235 237
265 271 276 274 272 270 272 273 269 263 257 252 250 249 249 250 252 254 257 257 258 260 263 265 266 265 262 261 261 258 248 236 235 242 257 270 276 281 287 287 284 281 278 280 284 286 284 277 271 268 267 268 269 270 270 269 269 268 267 265 264 263 261 259 258 256 255 254 253 252 250 248 246 244 242 242 242 242 241 239 237 235 234 234 235 237
280 280 279 277 273 270 269 267 267 267 269 266 260 252 247 246 246 247 248 249 250 253 256 259 261 262 263 263 263 261 252 236 233 240 257 269 276 279 283 284 283 283 282 284 285 284 280 276 271 267 265 267 268 269 269 269 268 267 266 265 263 261 260 258 256 254 253 252 251 250 248 246 244 242 240 239 238 238 238 237 235 233 233 233 235 238
284 283 283 285 286 288 290 292 294 296 299 300 299 295 283 273 267 264 260 257 258 260 263 265 267 269 273 274 273 271 268 250 240 241 256 272 280 281 281 280 281 282 283 284 282 279 276 276 274 271 267 267 267 268 268 268 267 266 265 264 262 261 259 257 255 253 251 250 248 247 246 244 242 240 237 236 235 234 234 233 232 231 230 232 234 238
294 296 298 300 301 302 303 303 303 303 302 301 300 298 297 296 291 285 278 276 275 275 275 274 275 277 278 276 274 274 276 269 259 252 259 275 279 280 278 279 278 278 280 280 279 278 280 280 279 276 271 267 266 266 267 266 266 266 265 266 264 262 260 257 254 252 249 248 246 244 243 241 240 238 235 233 232 230 230 230 228 227 227 228 232 239
302 304 306 306 305 304 303 302 302 302 302 301 299 297 295 293 287 281 277 279 280 279 274 273 275 279 280 279 279 279 280 276 270 264 262 268 269 271 273 274 272 272 277 281 284 285 283 278 275 272 268 265 263 263 264 267 268 270 274 276 275 272 267 261 256 251 248 245 243 242 240 239 237 235 233 230 228 227 226 225 224 223 222 223 228 237
304 304 303 302 301 300 301 302 303 302 301 298 295 292 289 284 277 275 277 287 288 283 275 274 275 278 281 284 284 282 276 269 260 249 242 251 257 262 267 267 268 273 287 296 296 290 279 267 261 258 259 259 259 261 267 275 282 289 299 294 291 285 276 267 260 253 247 244 241 239 237 235 234 232 230 227 225 222 221 219 218 217 216 219 225 234
301 299 297 295 295 295 296 296 295 294 293 292 291 290 289 286 283 284 292 297 289 280 274 273 273 274 278 282 283 279 270 260 242 224 221 240 252 261 269 274 285 301 314 310 304 296 285 268 252 243 247 257 264 273 286 295 302 304 305 297 291 285 278 271 263 256 248 242 238 235 233 232 231 229 227 224 222 219 216 213 210 208 208 215 223 230
297 295 291 289 287 287 286 284 283 284 286 288 290 291 290 286 281 277 276 273 268 266 266 267 268 268 269 273 274 273 269 255 229 212 212 246 262 274 284 289 293 297 300 297 298 299 299 290 271 247 251 271 281 286 288 286 284 283 282 285 284 281 277 273 267 259 249 241 236 232 230 229 228 226 224 221 219 215 212 208 203 200 204 213 221 226
297 294 291 288 285 282 280 279 278 278 279 281 281 280 277 274 269 263 257 251 250 251 256 259 261 262 261 260 261 264 267 265 262 263 272 272 274 277 279 279 279 278 273 265 269 280 291 293 292 288 288 290 288 283 277 272 270 271 273 276 278 278 277 275 269 261 251 240 233 229 227 226 225 224 222 219 216 213 209 205 200 197 200 211 219 224
300 297 295 292 288 284 280 278 276 274 273 271 269 267 266 265 263 259 254 246 242 242 246 251 255 257 257 256 257 259 263 264 267 269 270 269 269 269 267 267 268 269 266 256 254 257 268 279 289 295 296 290 285 279 275 271 267 264 265 269 274 277 279 277 272 263 251 237 229 225 224 224 223 221 220 217 214 211 207 204 200 197 197 207 215 219
301 299 297 294 290 286 282 279 277 275 273 270 267 265 261 258 257 256 253 247 242 239 240 245 250 254 256 257 258 259 261 259 260 260 260 258 260 264 265 262 261 262 264 258 254 254 259 269 280 289 294 291 286 279 274 270 266 261 256 261 268 275 279 278 273 265 251 231 220 217 218 219 220 219 218 216 213 210 207 204 201 200 200 205 209 211
301 301 299 297 294 291 288 286 284 282 280 277 274 270 266 261 258 255 252 250 246 242 240 242 245 248 252 256 259 262 262 260 258 257 256 253 255 260 264 258 256 257 259 261 259 259 264 269 274 281 289 292 290 284 274 265 260 258 256 260 268 274 276 274 271 266 254 231 214 207 206 208 211 213 215 213 211 209 207 204 203 203 204 205 206 208
304 303 302 300 298 296 295 295 294 293 291 287 282 277 272 267 261 256 253 250 248 246 245 243 243 243 245 250 255 259 262 262 260 258 256 253 254 258 262 259 256 255 258 261 261 263 267 272 274 277 281 285 287 288 284 273 266 266 269 271 275 276 276 273 270 266 259 237 216 204 199 199 200 203 207 207 207 207 206 205 205 205 206 207 208 210
306 305 304 302 301 300 300 300 300 298 296 292 287 282 277 272 266 261 256 252 249 249 249 248 246 245 244 245 249 253 258 259 258 254 252 251 252 253 258 259 256 254 253 258 261 264 268 272 275 275 274 274 277 283 289 290 287 282 279 280 280 280 280 279 277 273 267 247 226 208 195 194 195 196 198 202 203 204 205 206 206 206 207 208 210 212
309 307 306 305 305 305 305 305 303 301 299 296 293 288 284 278 272 267 263 257 252 250 250 249 249 249 248 249 250 251 254 254 252 249 245 244 244 246 251 256 254 250 247 251 255 260 263 268 271 272 272 269 269 273 281 287 289 287 285 284 281 277 274 270 268 267 264 252 234 213 197 192 191 191 192 194 195 197 201 204 205 206 207 208 210 213
311 309 309 310 311 311 310 307 304 303 301 298 294 291 288 283 278 273 268 263 259 254 252 251 250 250 249 250 251 252 253 252 250 247 242 239 237 239 244 249 250 248 244 244 246 249 252 256 260 264 269 272 273 273 275 277 279 284 291 289 281 271 261 260 261 263 263 254 237 218 201 193 189 189 189 190 191 193 197 198 199 199 200 203 209 214
313 312 312 313 314 313 310 307 304 302 300 297 294 293 291 288 285 280 274 270 266 262 257 253 252 251 250 249 250 250 251 251 250 247 243 237 233 233 237 242 245 246 243 240 239 239 242 247 251 256 259 266 272 275 277 273 272 277 286 287 282 275 270 276 281 284 285 275 253 228 205 194 190 189 190 190 192 194 195 194 192 191 190 192 197 204
316 316 315 314 313 311 307 305 303 301 299 297 296 295 293 291 289 286 282 278 274 270 266 260 257 255 253 249 248 247 247 249 249 247 244 239 235 233 233 236 239 240 239 238 236 235 235 241 247 251 253 258 265 270 272 270 269 270 272 272 274 278 282 277 274 273 278 277 264 243 215 197 190 189 191 191 193 195 193 191 188 187 185 190 193 195
317 317 316 314 312 310 308 306 304 303 303 301 299 297 294 293 292 290 289 288 284 281 278 273 270 267 264 259 254 249 246 246 245 245 244 241 237 234 233 233 233 234 235 236 236 235 234 237 242 246 248 251 257 263 267 267 265 262 259 263 272 280 281 269 257 248 252 259 259 248 223 203 192 190 190 191 192 192 190 191 190 188 186 190 194 198
316 315 314 312 310 308 307 307 308 309 310 307 303 299 297 296 295 295 294 293 291 290 288 284 281 279 277 275 270 263 254 248 245 244 243 240 238 235 233 231 231 230 230 234 236 238 236 236 239 241 243 245 249 255 262 265 264 259 254 254 259 267 272 268 260 251 249 253 252 244 226 210 197 190 188 189 190 190 190 192 194 193 191 191 193 198
312 312 312 312 311 310 311 313 314 314 313 309 306 303 302 301 300 299 298 296 294 293 293 291 288 284 281 280 278 276 271 260 249 244 242 241 238 235 234 231 229 228 226 229 234 238 239 238 238 239 239 240 243 248 254 258 259 257 251 246 244 245 249 265 282 288 283 274 264 251 229 215 203 194 187 188 191 193 193 194 195 196 194 192 193 197
311 313 315 317 317 318 318 317 316 315 313 310 307 306 305 305 304 303 301 298 297 297 296 296 294 290 286 284 284 285 284 280 270 258 250 247 245 243 239 235 231 227 225 227 230 233 237 239 240 239 236 235 238 242 247 251 254 254 251 244 241 242 246 255 264 270 273 274 271 262 241 221 208 199 191 190 192 194 195 193 192 192 193 191 193 196
316 318 320 321 322 321 320 318 317 315 313 311 309 308 307 307 306 303 301 300 299 299 298 297 294 291 290 291 292 293 293 291 287 282 273 261 252 247 244 241 238 235 231 230 230 232 234 237 239 240 238 237 238 239 241 243 247 250 250 244 242 242 244 246 245 245 246 254 260 261 252 230 214 204 196 191 192 194 195 192 191 191 190 190 192 195
322 322 322 323 323 323 321 321 319 317 315 312 311 310 310 309 308 305 304 303 302 301 300 298 294 290 288 290 292 294 294 294 293 291 288 282 273 264 256 251 248 245 242 238 235 234 235 236 236 235 234 237 240 242 241 238 239 241 243 240 238 237 240 240 238 236 235 241 247 252 252 236 220 208 199 191 189 189 191 190 191 191 190 190 192 196
322 322 322 323 324 324 324 324 323 320 317 314 312 311 311 312 313 312 309 308 306 303 303 301 297 293 290 289 289 288 288 289 290 290 291 289 285 278 268 261 254 249 246 244 242 240 238 236 233 230 229 232 237 241 242 237 234 234 235 233 232 233 237 238 237 234 232 235 239 242 245 237 223 209 197 188 185 186 187 187 188 189 188 189 192 196
321 321 322 323 324 325 326 326 324 322 319 316 314 313 313 313 314 314 311 309 307 305 303 301 299 296 293 291 288 286 285 285 285 286 286 285 284 280 274 267 261 255 250 247 244 242 241 237 232 228 225 226 231 237 241 237 234 231 231 229 228 230 234 237 236 232 229 230 233 236 239 239 229 213 197 188 186 187 186 185 185 186 187 189 192 195
322 322 322 323 325 325 326 325 324 322 320 318 317 316 315 315 314 313 310 307 306 304 302 300 298 296 293 291 289 288 287 287 285 284 282 282 282 281 279 275 271 267 262 255 248 243 240 237 232 227 223 222 223 227 233 234 233 230 229 228 227 226 230 233 233 230 226 227 227 230 235 239 233 220 205 195 190 188 187 184 183 184 186 189 192 195
324 324 324 325 326 326 326 326 325 323 321 321 319 318 317 316 315 313 312 310 309 306 302 299 295 292 290 290 290 290 291 291 290 288 286 286 286 284 282 280 278 277 275 271 263 254 243 239 233 228 222 219 218 218 222 224 225 226 228 227 225 223 225 229 230 228 226 225 225 226 229 232 227 217 206 199 193 189 189 185 184 184 185 187 191 193